Showing default

ICEYE-X6, 46497

Orbit data source: Space-Track

ICEYE-X6, 46497 is a payload satellite owned by ICEYE (FI) in SSO that was launched on Mon, 28 Sep 2020 UTC via a SOYUZ-2-1B launch vehicle from the Plesetsk Missile And Space Complex (PKMTR). Payloads include a variety of satellites, spacecraft, and rockets equipped with specific instruments for various scientific and technological missions. These include communications satellites like Starlink; space stations such as the ISS; scientific satellites like the Hubble; Earth observation satellites from companies like Planet Labs, Umbra, and HawkEye 360; GPS; miniature CubeSats for education and research; and military/defense satellites.

Loading next visibility...
ICEYE-X6 details
Identifier
46497, 2020-068M
Orbit
SSO
Last TLE update7 hours ago
Origin
Flag of FIICEYE (FI / FIN)
ManufacturerICEYE
MissionOperational Commercial Radar Imaging
Bus & MotorICEYE, Unknown motor
Mass80 kg wet, 80 kg dry
Launch date (UTC)
2020-09-28 (4 years ago)
Launch vehicle
SOYUZ-2-1B
Launch site
Plesetsk Missile And Space Complex (PKMTR)
Object type
Payload
Rocket body
Debris
Shape & HBRBox + 1 Pan, 3.25 m
Radar Cross Section1.837 m², Medium (>0.1 m² and < 1m²)

Expand to show TLE details & history

TLE from 7 hours ago
0 ICEYE-X6
1 46497U 20068M   24361.24463735  .00009228  00000-0  73144-3 0  9999
2 46497  98.0085 322.3212 0006764  85.8752 274.3244 15.00770624232471
Epoch: 2024-12-26T05:52Z
Definitive object data (Epoch: 2024-12-26T05:52:16.667Z)
Latitude0.00001°
Longitude139.02494°
Altitude567.214 km
Speed7.578 km/s
True Right ascension21h 29m 17s
True Declination0° 00' 00"
Sunlit
Object was in daylight at TLE epoch
Visualization TLE readout
Latitude-33.70195°
Longitude-46.01456°
Altitude580.215 km
Speed7.567 km/s
Apparent Right ascension05h 31m 28s
Apparent Declination-59° 13' 50"
Sunlit
Object is in daylight
Visualization observer readout
Local Sidereal Time12:34:54
Azimuth220.84° SW
Elevation-41.191°
Doppler factor1
Orbital elements
Apogee altitude566.231 km
Perigee altitude556.843 km
Semi-major axis6,939.674 km
Eccentricity0.0006764
Inclination98.0085°
RAAN322.3212°
Arg. of periapsis85.8752°
True anomaly274.24711°
Mean anomaly274.3244°
Eccentric anomaly274.28575°
Mean motion3.75435 °/min
BSTAR0.00073144
Orbital period95.89 mins
Loading maneuver chart data...
Loading historical data...
Loading historical data...
Loading historical data...
Loading historical data...
Loading historical data...
Loading historical data...
Loading historical data...

ICEYE-X6 Visibility forecast

Observer location: undefined°, undefined

Span
Click to sort rows by Start time (UTC) header in descending order
Start Az.
Max El. time (UTC)
Max El. Az.
Max El.
End time (UTC)
End Az.
6 mins2024-12-26 22:00:16.158Z191.167° SSW2024-12-26 22:03:16.158Z279.922° WNW36.095°2024-12-26 22:06:16.158Z333.607° NNW
4 mins2024-12-27 09:40:16.158Z61.407° ENE2024-12-27 09:42:16.158Z99.729° ESE18.789°2024-12-27 09:44:16.158Z134.741° SE
5 mins2024-12-27 11:15:16.158Z330.88° NNW2024-12-27 11:17:16.158Z282.596° WNW25.356°2024-12-27 11:20:16.158Z231.534° WSW
|